Regional Weather Roundup
Issued by NWS Newport/Morehead, NC

Current Version | Previous Version | Graphics & Text | Print | Product List | Glossary Off
Versions: 1 2 3 4 5 6 7 8 9 10 11 12 13 14 15 16 17 18 19 20 21 22 23 24 25 26 27 28 29 30 31 32 33 34 35 36 37 38 39 40 41 42 43 44 45 46 47 48 49 50

000
ASUS42 KMHX 212325
RWRMHX
WEATHER ROUNDUP FOR EASTERN NORTH CAROLINA
NATIONAL WEATHER SERVICE NEWPORT/MOREHEAD CITY NC
700 PM EDT THU SEP 21 2017

NOTE: "FAIR" INDICATES FEW OR NO CLOUDS BELOW 12,000 FEET
WITH NO SIGNIFICANT WEATHER AND/OR OBSTRUCTIONS TO VISIBILITY

NCZ015>017-031-032-045>047-102-103-220000-
NORTH COAST

CITY           SKY/WX    TMP DP  RH WIND       PRES   REMARKS
EDENTON        CLEAR     77  69  76 CALM      30.01R
ELIZABETH CITY CLEAR     76  69  79 E6        30.00S
KITTY HAWK     CLEAR     72  64  76 CALM      29.99S
MANTEO         PTCLDY    75  65  71 CALM      30.00S

$$

NCZ045>047-081-094-103-104-220000-
CENTRAL COAST

CITY           SKY/WX    TMP DP  RH WIND       PRES   REMARKS
FRISCO         CLEAR     76  69  79 E6        30.00R

$$

NCZ095-097-098-100-101-220000-
SOUTHERN COAST

CITY           SKY/WX    TMP DP  RH WIND       PRES   REMARKS
BEAUFORT       PTCLDY    76  70  82 CALM      29.99S
CEDAR ISLAND   NOT AVBL
JACKSONVILLE   CLOUDY    71  69  93 SE7       29.99S
PINEY ISLAND     N/A    N/A N/A N/A SW3       29.98S
WILMINGTON     CLOUDY    70  67  90 S6        30.00F


$$

NCZ011>013-027>030-043-044-078>080-089-090>093-098-220000-
COASTAL PLAIN

CITY           SKY/WX    TMP DP  RH WIND       PRES   REMARKS
AHOSKIE        PTCLDY    75  70  84 CALM      30.00R
CLINTON        PTCLDY    73  69  89 CALM      30.01S
ELIZABETHTOWN  NOT AVBL
GOLDSBORO      MOCLDY    76  74  92 CALM      29.99S
GREENVILLE     CLEAR     77  73  88 W3        30.01S
HAVELOCK       CLOUDY    74  71  91 W7        30.00S
KENANSVILLE    MOCLDY    72  68  88 CALM      30.01F
KINSTON        CLOUDY    73  70  88 W3        30.01S
NEW BERN       CLOUDY    71  69  93 S3        30.00S
RICHLANDS      LGT RAIN  70  69  97 CALM      30.00F
ROCKY MOUNT    CLEAR     75  74  96 CALM      30.00S
WASHINGTON     CLEAR     76  71  84 CALM      29.99S
WHITEVILLE     RAIN      69  67  92 NE6       30.02R

$$

AMZ130-135-150-152-154-156-158-170-250-252-270-ANZ085-086-088-633-658-670-220000-
MARINE OBSERVATIONS

STATION/POSITION TIME  TEMP    WIND        PRES    WAVE   SWELL
                       AIR SEA DIR/SP/G            HT/PER HT/PER
                 (UTC) (F)     (DEG/KT/KT) (MB)    (FT/S) (FT/S)
CHESAPEAKE LIGHT NOT AVBL
64 E VA BEACH    2250   71 71   20/  8/ 10 1016.3    7/10   7/10
DUCK             2300   75 76   60/  5/  6 1015.6
2 E DUCK         2300      75                N/A     4/11   2/11
OREGON INLET     2300   75 78   40/  5/  6 1015.8
13E OREGON INLT  2248      75                N/A     5/11   5/11
HATTERAS CG      2300   76 78   90/  5/  8 1015.7
DIAMOND BUOY     2250   76 76   40/ 10/ 12 1015.5    5/10   5/10
CAPE LOOKOUT     2300   78     260/  2/  2 1015.1
BEAUFORT LAB     2300   77 77  300/  3/  3 1014.9
30 SE NEW RVR IN 2308   78     350/  8/ 12 1015.8
30 SE NEW RVR IN NOT AVBL
27 SE WRIGHTSVLE 2308   77 81  360/ 16/ 21 1015.8
5 SE WRIGHTSVLE  2308   72 78  320/  4/  6 1015.4
225 S CAPE HAT   2250   80 84   CALM  /  4 1015.3    5/10   5/10
41 SE CHARLESTON 2310   81 82  150/  4/  6 1014.3

$$




USA.gov is the U.S. government's official web portal to all federal, state and local government web resources and services.